Location: Windsor
(43.2292°N, 89.3015°W)
Time: 19:13:19
(UTC+00:00)

AO-7 - Visible Passes

Search period start: 29 June 2022 00:00
Search period end: 09 July 2022 00:00
Orbit: 1439 x 1459 km, 101.9° (Epoch: 29 June)

Date Brightness Start Highest point End Pass type
(mag) Time Alt. Az. Time Alt. Az. Time Alt. Az.
29 Jun ? 09:38:09 10° NNE 09:45:46 38° E 09:53:21 10° SSE visible
30 Jun ? 08:40:37 10° NE 08:44:56 15° E 08:49:13 10° ESE visible
01 Jul ? 09:31:14 10° NE 09:38:39 34° E 09:46:01 10° SSE visible
02 Jul ? 08:34:19 10° ENE 08:37:44 13° E 08:41:08 10° ESE visible
03 Jul ? 09:24:21 10° NE 09:31:31 31° E 09:38:39 10° SSE visible
04 Jul ? 08:28:27 10° ENE 08:30:31 11° E 08:32:35 10° E visible
05 Jul ? 09:17:30 10° NE 09:24:24 28° E 09:31:14 10° SSE visible
07 Jul ? 09:10:41 10° NE 09:17:15 25° E 09:23:46 10° SE visible
